WNISAT-1

Last updated on Mon Sep 21 2026 00:03:44 GMT+0000 (Coordinated Universal Time)

1 39423U 13066H 26263.38903949 .00000388 00000+0 79808-4 0 9995 2 39423 97.7343 45.8670 0161407 292.2310 66.1838 14.58197616680604
UTC large
Height (km)
Speed (km/s)
/
Latitude / Longitude
Inclination (degrees)
Orbital Period (minutes)
Azimuth
Elevation
Range (km)
Doppler Factor

Next 0 passes for location: London (51.5072 / 0.1276)

No passes found over London.
WNISAT-1